TimeEST,TemperatureF,Dew PointF,Humidity,Sea Level PressureIn,VisibilityMPH,Wind Direction,Wind SpeedMPH,Gust SpeedMPH,PrecipitationIn,Events,Conditions,WindDirDegrees,DateUTC
12:15 AM,59.0,52.5,79,30.05,10.0,SSW,5.8,-,N/A,,Clear,200,2012-11-04 04:15:00
12:35 AM,60.8,52.7,75,30.05,10.0,SSW,5.8,-,N/A,,Clear,210,2012-11-04 04:35:00
12:55 AM,61.0,52.7,74,30.05,10.0,SSW,5.8,-,N/A,,Clear,200,2012-11-04 04:55:00
1:15 AM,60.8,52.7,75,30.05,10.0,SSW,5.8,-,N/A,,Clear,200,2012-11-04 05:15:00
1:35 AM,60.6,52.7,75,30.05,10.0,SSW,4.6,-,N/A,,Clear,210,2012-11-04 05:35:00
1:55 AM,59.9,52.5,77,30.05,10.0,SSW,4.6,-,N/A,,Clear,200,2012-11-04 05:55:00
1:15 AM,58.8,52.3,79,30.05,10.0,SSW,4.6,-,N/A,,Clear,200,2012-11-04 06:15:00
1:35 AM,56.7,51.8,84,30.05,10.0,South,3.5,-,N/A,,Clear,190,2012-11-04 06:35:00
1:55 AM,55.2,51.8,88,30.05,10.0,Calm,Calm,-,N/A,,Clear,0,2012-11-04 06:55:00
2:15 AM,54.1,51.1,89,30.04,10.0,Calm,Calm,-,N/A,,Clear,0,2012-11-04 07:15:00
2:35 AM,53.8,51.6,92,30.04,10.0,SSW,3.5,-,N/A,,Clear,210,2012-11-04 07:35:00
2:55 AM,53.2,51.8,95,30.03,10.0,SSW,3.5,-,N/A,,Clear,200,2012-11-04 07:55:00
3:15 AM,52.3,51.4,97,30.03,10.0,SSW,3.5,-,N/A,,Clear,200,2012-11-04 08:15:00
3:35 AM,52.5,52.0,98,30.03,10.0,SW,4.6,-,N/A,,Clear,220,2012-11-04 08:35:00
3:55 AM,54.5,53.1,95,30.04,10.0,WNW,5.8,-,N/A,,Clear,300,2012-11-04 08:55:00
4:15 AM,54.5,52.7,94,30.03,10.0,WSW,3.5,-,N/A,,Clear,250,2012-11-04 09:15:00
4:35 AM,52.7,51.1,94,30.03,10.0,SSW,3.5,-,N/A,,Clear,200,2012-11-04 09:35:00
4:55 AM,54.1,53.6,98,30.03,10.0,Calm,Calm,-,N/A,,Clear,0,2012-11-04 09:55:00
5:15 AM,54.9,54.0,97,30.03,10.0,Calm,Calm,-,N/A,,Clear,0,2012-11-04 10:15:00
5:35 AM,54.0,53.4,98,30.03,10.0,SSW,4.6,-,N/A,,Clear,200,2012-11-04 10:35:00
5:55 AM,53.6,53.6,100,30.03,10.0,South,3.5,-,N/A,,Clear,190,2012-11-04 10:55:00
6:15 AM,52.7,52.7,100,30.03,10.0,Calm,Calm,-,N/A,,Clear,0,2012-11-04 11:15:00
6:35 AM,51.8,51.8,100,30.03,7.0,Calm,Calm,-,N/A,,Clear,0,2012-11-04 11:35:00
6:55 AM,51.8,51.8,100,30.04,7.0,NW,3.5,-,N/A,,Clear,310,2012-11-04 11:55:00
7:15 AM,50.9,50.9,100,30.05,5.0,Calm,Calm,-,N/A,,Clear,0,2012-11-04 12:15:00
7:35 AM,52.3,52.3,100,30.04,7.0,Calm,Calm,-,N/A,,Clear,0,2012-11-04 12:35:00
7:55 AM,54.9,54.9,100,30.05,7.0,Calm,Calm,-,N/A,,Clear,0,2012-11-04 12:55:00
8:15 AM,59.4,57.2,93,30.04,10.0,Calm,Calm,-,N/A,,Clear,0,2012-11-04 13:15:00
8:35 AM,62.2,57.4,84,30.04,10.0,Calm,Calm,-,N/A,,Clear,0,2012-11-04 13:35:00
8:55 AM,64.9,57.7,77,30.05,10.0,Calm,Calm,-,N/A,,Clear,0,2012-11-04 13:55:00
9:15 AM,68.4,57.9,69,30.04,10.0,West,5.8,-,N/A,,Clear,260,2012-11-04 14:15:00
9:35 AM,70.9,58.3,64,30.04,10.0,West,9.2,16.1,N/A,,Clear,270,2012-11-04 14:35:00
9:55 AM,72.9,58.8,61,30.03,10.0,WSW,11.5,-,N/A,,Clear,240,2012-11-04 14:55:00
10:15 AM,72.7,58.6,61,30.04,10.0,WNW,15.0,-,N/A,,Clear,290,2012-11-04 15:15:00
10:35 AM,72.9,59.0,62,30.03,10.0,WSW,9.2,-,N/A,,Clear,250,2012-11-04 15:35:00
10:55 AM,73.8,59.0,60,30.03,10.0,West,8.1,-,N/A,,Clear,270,2012-11-04 15:55:00
11:15 AM,74.3,59.0,59,30.02,10.0,WSW,8.1,-,N/A,,Clear,250,2012-11-04 16:15:00
11:35 AM,76.8,59.0,54,30.01,10.0,SW,9.2,-,N/A,,Clear,230,2012-11-04 16:35:00
11:55 AM,76.5,56.8,51,30.01,10.0,West,12.7,16.1,N/A,,Clear,260,2012-11-04 16:55:00
12:15 PM,77.7,55.8,47,30.00,10.0,WSW,10.4,18.4,N/A,,Clear,250,2012-11-04 17:15:00
12:35 PM,79.3,56.5,45,29.99,10.0,WSW,17.3,20.7,N/A,,Scattered Clouds,250,2012-11-04 17:35:00
12:55 PM,79.9,56.3,44,29.98,10.0,WSW,12.7,19.6,N/A,,Scattered Clouds,240,2012-11-04 17:55:00
1:15 PM,79.3,55.4,44,29.97,10.0,West,13.8,20.7,N/A,,Scattered Clouds,260,2012-11-04 18:15:00
1:35 PM,77.0,54.9,46,29.97,10.0,West,13.8,20.7,N/A,,Scattered Clouds,270,2012-11-04 18:35:00
1:55 PM,78.3,54.7,44,29.96,10.0,WNW,13.8,20.7,N/A,,Scattered Clouds,290,2012-11-04 18:55:00
2:15 PM,76.8,54.7,46,29.96,10.0,WNW,15.0,21.9,N/A,,Mostly Cloudy,300,2012-11-04 19:15:00
2:35 PM,76.6,54.9,47,29.96,10.0,West,12.7,16.1,N/A,,Scattered Clouds,260,2012-11-04 19:35:00
2:55 PM,75.9,54.5,47,29.96,10.0,West,15.0,-,N/A,,Scattered Clouds,280,2012-11-04 19:55:00
3:15 PM,75.7,54.9,48,29.96,10.0,NW,10.4,-,N/A,,Scattered Clouds,310,2012-11-04 20:15:00
3:35 PM,75.7,54.3,47,29.96,10.0,West,12.7,18.4,N/A,,Clear,280,2012-11-04 20:35:00
3:55 PM,75.0,54.5,49,29.96,10.0,WNW,12.7,16.1,N/A,,Clear,290,2012-11-04 20:55:00
4:15 PM,73.8,54.5,51,29.96,10.0,West,11.5,-,N/A,,Scattered Clouds,280,2012-11-04 21:15:00
4:35 PM,72.0,55.8,57,29.96,10.0,WNW,11.5,19.6,N/A,,Mostly Cloudy,290,2012-11-04 21:35:00
4:55 PM,69.3,56.5,64,29.96,10.0,West,6.9,16.1,N/A,,Scattered Clouds,280,2012-11-04 21:55:00
5:15 PM,68.9,56.7,65,29.97,10.0,West,5.8,-,N/A,,Mostly Cloudy,280,2012-11-04 22:15:00
5:35 PM,67.6,57.4,70,29.97,10.0,West,5.8,-,N/A,,Overcast,280,2012-11-04 22:35:00
5:55 PM,67.6,56.8,68,29.97,10.0,West,4.6,-,N/A,,Overcast,280,2012-11-04 22:55:00
6:15 PM,67.1,56.8,70,29.98,10.0,West,8.1,-,N/A,,Mostly Cloudy,270,2012-11-04 23:15:00
6:35 PM,67.3,56.1,67,29.99,10.0,West,9.2,-,N/A,,Overcast,280,2012-11-04 23:35:00
6:55 PM,66.7,55.9,68,29.99,10.0,West,8.1,-,N/A,,Overcast,280,2012-11-04 23:55:00
7:15 PM,65.7,56.3,72,29.99,10.0,West,6.9,-,N/A,,Mostly Cloudy,280,2012-11-05 00:15:00
7:35 PM,64.8,56.3,74,30.00,10.0,WNW,6.9,-,N/A,,Scattered Clouds,290,2012-11-05 00:35:00
7:55 PM,64.0,55.9,75,30.00,10.0,West,5.8,-,N/A,,Clear,280,2012-11-05 00:55:00
8:15 PM,63.5,55.8,76,30.01,10.0,West,6.9,-,N/A,,Clear,280,2012-11-05 01:15:00
8:35 PM,63.0,55.6,77,30.00,10.0,West,6.9,-,N/A,,Clear,280,2012-11-05 01:35:00
8:55 PM,62.1,55.6,79,30.00,10.0,WNW,5.8,-,N/A,,Clear,290,2012-11-05 01:55:00
9:15 PM,61.3,55.6,81,30.00,10.0,WNW,5.8,-,N/A,,Clear,290,2012-11-05 02:15:00
9:35 PM,60.8,54.7,80,30.01,10.0,WNW,8.1,-,N/A,,Clear,300,2012-11-05 02:35:00
9:55 PM,60.6,52.7,75,30.00,10.0,WNW,9.2,-,N/A,,Clear,290,2012-11-05 02:55:00
10:15 PM,59.9,51.3,73,30.00,10.0,WNW,6.9,-,N/A,,Clear,290,2012-11-05 03:15:00
10:35 PM,59.0,50.9,74,30.00,10.0,WNW,6.9,-,N/A,,Clear,300,2012-11-05 03:35:00
10:55 PM,57.9,50.4,76,30.01,10.0,WNW,4.6,-,N/A,,Clear,300,2012-11-05 03:55:00